Flag for Canada Weather past 2 weeks in Whitby, Ontario, Canada

Now
41 °F

Passing clouds.


Feels Like: 33 °F
Forecast: 18 / 40 °F
Wind: 15 mph from Southwest

Location: Toronto Buttonville

Current Time: Mar 29, 2015 at 3:37:24 PM

Latest Report: Mar 29, 2015 at 3:00 PM


Visibility: 15 mi

Pressure: 30.09 "Hg

Humidity: 36%

Dew point: 16 °F

Location of WhitbyLocation

Historic Weather in Whitby — Graph

°F

Whitby temperature yesterday

Maximum temperature yesterday: 27 °F (at 3:00 PM)
Minimum temperature yesterday: 12 °F (at 6:00 AM)
Average temperature yesterday: 20 °F

Past Weeks' High & Low Weather Summary

 TemperatureHumidityPressure
High50 °F (Mar 16, 4:00 PM)100% (Mar 14, 2:00 PM)30.43 "Hg (Mar 14, 2:00 PM)
Low10 °F (Mar 23, 7:00 AM)25% (Mar 19, 2:00 PM)29.68 "Hg (Mar 17, 2:00 AM)
Average29 °F64%30.10 "Hg
* Reported Mar 14 2:00 PM — Mar 29 2:00 PM, Whitby, Weather by CustomWeather, © 2015

Note: Actual official high and low records may vary slightly from our data, if they occured in-between our weather recording intervals... More about our weather records

Advertising

Whitby weather history for previous 24 hours

 ConditionsComfort  
Time TempWeatherWind HumidityBarometerVisibility
2:00 PM
Sun, Mar 29
39 °FPassing clouds.16 mph42%30.14 "Hg15 mi
1:00 PM37 °FPassing clouds.14 mph45%30.19 "Hg15 mi
12:00 PM37 °FScattered clouds.10 mph35%30.22 "Hg15 mi
11:00 AM30 °FPassing clouds.6 mph51%30.25 "Hg15 mi
10:00 AM28 °FPassing clouds.6 mph55%30.28 "Hg15 mi
9:00 AM25 °FPassing clouds.6 mph63%30.29 "Hg15 mi
8:00 AM19 °FPassing clouds.2 mph73%30.29 "Hg15 mi
7:00 AM14 °FPassing clouds.No wind85%30.28 "Hg15 mi
6:00 AM18 °FClear.3 mph73%30.28 "Hg15 mi
5:00 AM18 °FClear.3 mph68%30.27 "Hg15 mi
4:00 AM18 °FClear.2 mph68%30.27 "Hg15 mi
3:00 AM18 °FClear.2 mph68%30.27 "Hg15 mi
2:00 AM19 °FClear.2 mph68%30.28 "Hg15 mi
1:00 AM19 °FClear.2 mph63%30.28 "Hg15 mi
12:00 AM19 °FClear.3 mph63%30.28 "Hg15 mi
11:00 PM
Sat, Mar 28
21 °FClear.5 mph58%30.27 "Hg15 mi
10:00 PM23 °FClear.5 mph50%30.26 "Hg15 mi
9:00 PM23 °FClear.10 mph46%30.25 "Hg15 mi
8:00 PM23 °FSunny.10 mph46%30.24 "Hg15 mi
7:00 PM25 °FSunny.14 mph46%30.22 "Hg15 mi
6:00 PM27 °FSunny.14 mph46%30.20 "Hg15 mi
5:00 PM27 °FSunny.12 mph43%30.19 "Hg15 mi
4:00 PM27 °FSunny.10 mph36%30.18 "Hg15 mi
3:00 PM27 °FSunny.15 mph39%30.18 "Hg15 mi
Weather by CustomWeather, © 2015

See weather overviewHow to use our weather pages